Location: Barton Flats Campground
(34.1722°N, 116.8753°W)
Time: 20:22:39
(UTC+00:00)

ERS-2 - Pass Details

Date: 08 August 2020
Orbit: 493 x 498 km, 98.6° (Epoch: 01 October)

Event Time Altitude Azimuth Distance (km) Brightness Sun altitude
Exits shadow 12:33:26 - 208° (SSW) 2,271 5.0 -6.7°
Reaches altitude 10° 12:35:23 10° 227° (SW) 1,684 4.2 -6.4°
Maximum altitude 12:37:34 15° 264° (W) 1,391 3.8 -5.9°
Drops below altitude 10° 12:39:45 10° 302° (WNW) 1,694 4.5 -5.5°
Sets 12:42:33 0° 325° (NW) 2,583 5.6 -5.0°
